Powrót do katalogu

STARLINK-37801

AktywnyŁącznośćSSO
NORAD 69435·PAYLOAD·🇺🇸 United States

Wystrzelony Jun 7, 2026 z Vandenberg Space Force Base

Loading…

Następne Przeloty (najbliższe 24 godziny)

TLE

ŚwieżeSource: CelesTrak SupGP

Epoka: Sep 15, 2026, 03:35 UTC

1 69435C 26126R   26258.14979167 -.00009519  00000+0 -29543-3 0  2580
2 69435  97.2849 119.4586 0001932  95.0676 292.5736 15.33449348    19

Śledź STARLINK-37801 w czasie rzeczywistym z AllMySat

Download on the App Store